STARLINK-36412, 67518

Orbit data source: Space-Track

STARLINK-36412, 67518 is a payload satellite owned by SpaceX/Seattle (US) in LEO that was launched on Sun, 18 Jan 2026 UTC via an FALCON 9 launch vehicle from the Air Force Eastern Test Range (AFETR). Payload-class satellites include a variety of spacecraft equipped with specific instruments for various scientific and technological missions. These include communications satellites like Starlink; space stations such as the ISS; scientific satellites like the Hubble; Earth observation satellites from companies like Planet Labs, Umbra, and HawkEye 360; GPS; miniature CubeSats for education and research; and military/defense satellites.

Loading next visibility...
Identifier
67518, 2026-012AB
Orbit
LEO
Country
Flag of USUS
Related business
Manufacturer
SpaceX/Seattle
Mission
Operational spacecraft
Bus & Motor
STARLINK V2MO, Unknown motor
Mass
575 kg wet, ~530 kg dry
Launch date (UTC)
2026-01-18 (2 weeks ago)
Launch vehicle
FALCON 9
Launch site
Air Force Eastern Test Range (AFETR)
Object type
Payload
Rocket body
Debris
Shape & HBR
Unknown shape, 17.7 m
Radar Cross Section
RCS unknown

Expand to show TLE details & history
Last TLE update: 12 hours ago

TLE from 12 hours ago
0 STARLINK-36412
1 67518U 26012AB  26034.58335648 -.00967042  00000-0 -50569-2 0  9992
2 67518  42.9963 150.2451 0001064 255.8600 286.1666 15.82325740  3529
Epoch: 2026-02-03T14:00Z
TLE epoch observation values (Epoch: 2026-02-03T14:00:01.999Z)
Latitude
-1.44204°
Longitude
-11.98705°
Altitude
323.635 km
Speed
7.716 km/s
True Right ascension
22h 07m 08s
True Declination
-1° 25' 58"
Sunlit
Object was in daylight at epoch
Visualization orbit readout
Latitude
Unknown
Longitude
Unknown
Altitude
Unknown
Speed
Unknown
Apparent Right ascension
Unknown
Apparent Declination
Unknown
Sunlit
N/A
Visualization observer readout
Local Sidereal Time
04:16:47
Azimuth
Unknown
Elevation
Unknown
Doppler factor
Unknown
Orbital elements
Apogee altitude
326.571 km
Perigee altitude
325.144 km
Semi-major axis
6,703.994 km
Eccentricity
0.00011
Inclination
42.9963°
RAAN
150.2451°
Arg. of periapsis
255.86°
True anomaly
286.15489°
Mean anomaly
286.1666°
Eccentric anomaly
286.16074°
Mean motion
3.95406 °/min
Orbital period
91.05 mins
BSTAR
-0.0050569
Loading maneuver chart data...
Computing Atmospheric mass density...
Loading historical data...
Loading historical data...
Loading historical data...
Loading historical data...
Loading historical data...
Loading historical data...
Loading historical data...

Documentation

Showing up to 5 results
|